Hourly Data Report for September 21, 2017

All times are specified in Local Standard Time (LST). Add 1 hour to adjust for Daylight Saving Time where and when it is observed.

RANKIN INLET A
NUNAVUT

62°48'38.000" N
92°06'53.000" W
32.30 m
2303405
71083
YRT

Download Data

Hourly Data (September 2017)
Hourly Data Report for September 21, 2017
Temp Definition
°C
Dew Point Temp Definition
°C
Rel Hum Definition
%
Wind Dir Definition
10's deg

Wind Spd Definition
km/h
Visibility Definition
km
Stn Press Definition
kPa
Hmdx Definition


Wind Chill Definition


Weather Definition


TIME
00:00 Legend Double Dagger 3.0 1.5 90 8 30 16.1 101.51     Drizzle
01:00 Legend Double Dagger 3.0 0.7 85 8 35 16.1 101.43     Drizzle
02:00 Legend Double Dagger 2.8 0.8 87 8 33 16.1 101.34     Fog
03:00 Legend Double Dagger 2.7 0.7 86 7 39 16.1 101.28     Fog
04:00 Legend Double Dagger 2.6 0.6 87 7 37 24.1 101.25     Fog
05:00 Legend Double Dagger 2.3 1.0 91 7 34 16.1 101.22     Fog
06:00 Legend Double Dagger 2.3 1.3 93 8 30 8.1 101.20     Drizzle,Fog
07:00 Legend Double Dagger 2.2 1.4 94 7 32 4.0 101.22     Drizzle,Fog
08:00 Legend Double Dagger 2.4 1.0 91 7 34 6.4 101.18     Fog
09:00 Legend Double Dagger 2.9 1.2 89 8 31 9.7 101.17     Fog
10:00 Legend Double Dagger 3.0 0.9 86 8 32 12.9 101.18     LegendNANA
11:00 Legend Double Dagger 3.0 1.1 87 7 31 24.1 101.18     LegendNANA
12:00 Legend Double Dagger 3.1 1.4 88 7 30 24.1 101.16     Mostly Cloudy
13:00 Legend Double Dagger 3.7 0.5 79 7 34 16.1 101.15     LegendNANA
14:00 Legend Double Dagger 3.5 0.6 81 6 30 24.1 101.17     LegendNANA
15:00 Legend Double Dagger 3.5 0.4 81 6 37 24.1 101.20     Cloudy
16:00 Legend Double Dagger 3.5 0.6 82 6 33 24.1 101.24     LegendNANA
17:00 Legend Double Dagger 3.8 0.9 81 6 30 24.1 101.26     LegendNANA
18:00 Legend Double Dagger 3.8 0.8 81 7 25 24.1 101.30     Mostly Cloudy
19:00 Legend Double Dagger 3.5 1.1 84 6 29 24.1 101.35     LegendNANA
20:00 Legend Double Dagger 3.4 1.0 85 5 21 24.1 101.39     LegendNANA
21:00 Legend Double Dagger 3.3 0.8 84 5 21 24.1 101.40     Cloudy
22:00 Legend Double Dagger 3.1 0.9 86 5 25 24.1 101.40     LegendNANA
23:00 Legend Double Dagger 2.9 0.5 85 4 23 24.1 101.41     LegendNANA

Notes on Data Quality.

Legend

  • E = Estimated
  • M = Missing
  • NA = Not Available
  • ‡ = Partner data that is not subject to review by the National Climate Archives
Date modified: